Showing default

ZHUHAI-1 OHS-02, 43441

Orbit data source: Space-Track

ZHUHAI-1 OHS-02, 43441 is a payload satellite owned by Zhuhai Orbita (CN) in SSO that was launched on Thu, 26 Apr 2018 UTC via a CHANG ZHENG 11 launch vehicle from the Jiuquan Satellite Launch Center, China (JSC). Payload-class satellites include a variety of spacecraft equipped with specific instruments for various scientific and technological missions. These include communications satellites like Starlink; space stations such as the ISS; scientific satellites like the Hubble; Earth observation satellites from companies like Planet Labs, Umbra, and HawkEye 360; GPS; miniature CubeSats for education and research; and military/defense satellites.

Loading next visibility...
Identifier
43441, 2018-040C
Orbit
SSO
Last TLE update
7 hours ago
Origin
Manufacturer
Harbin
Mission
Operational Commercial Imaging
Bus & Motor
OHS-1, Unknown motor
Mass
~69 kg wet, ~69 kg dry
Launch date (UTC)
2018-04-26 (7 years ago)
Launch vehicle
CHANG ZHENG 11
Launch site
Jiuquan Satellite Launch Center, China (JSC)
Object type
Payload
Rocket body
Debris
Shape & HBR
Box, 1 m
Radar Cross Section
0.280 m², Medium (>0.1 m² and < 1m²)

Expand to show TLE details & history

TLE from 7 hours ago
0 ZHUHAI-1 OHS-02
1 43441U 18040C   25128.94404959  .00011365  00000-0  44620-3 0  9996
2 43441  97.0821 170.1814 0011598 232.3636 127.6551 15.25802579 52611
Epoch: 2025-05-08T22:39Z
Definitive object data (Epoch: 2025-05-08T22:39:25.884Z)
Latitude
-0.00007°
Longitude
-36.68373°
Altitude
496.356 km
Speed
7.614 km/s
True Right ascension
11h 20m 43s
True Declination
0° 00' 00"
Sunlit
Object was in full shadow at TLE epoch
Visualization TLE readout
Latitude
68.0113°
Longitude
-54.24069°
Altitude
507.742 km
Speed
7.612 km/s
Apparent Right ascension
03h 29m 01s
Apparent Declination
31° 37' 17"
Sunlit
Object is in daylight
Visualization observer readout
Local Sidereal Time
13:23:56
Azimuth
333.043° NNW
Elevation
-12.815°
Doppler factor
1
Orbital elements
Apogee altitude
493.281 km
Perigee altitude
477.361 km
Semi-major axis
6,863.458 km
Eccentricity
0.0011598
Inclination
97.0821°
RAAN
170.1814°
Arg. of periapsis
232.3636°
True anomaly
127.76023°
Mean anomaly
127.6551°
Eccentric anomaly
127.70767°
Mean motion
3.81706 °/min
BSTAR
0.0004462
Orbital period
94.31 mins
Loading maneuver chart data...
Loading SW <> Apogee altitude chart data...
Loading historical data...
Loading historical data...
Loading historical data...
Loading historical data...
Loading historical data...
Loading historical data...
Loading historical data...

ZHUHAI-1 OHS-02 Visibility forecast

Observer location: undefined°, undefined°

Span
Click to sort rows by Start time (UTC) header in descending order
Start Az.
Max El. time (UTC)
Max El. Az.
Max El.
End time (UTC)
End Az.
5 mins2025-05-09 14:58:17.872Z41.621° NE2025-05-09 15:00:17.872Z81.364° E24.522°2025-05-09 15:03:17.872Z151.608° SSE
5 mins2025-05-10 03:07:17.872Z193.887° SSW2025-05-10 03:09:17.872Z241.274° WSW34.774°2025-05-10 03:12:17.872Z330.679° NNW
|